Regional Weather Roundup
Issued by NWS Upton, NY

Current Version | Previous Version | Text Only | Print | Product List | Glossary Off
Versions: 1 2 3 4 5 6 7 8 9 10 11 12 13 14 15 16 17 18 19 20 21 22 23 24 25 26 27 28 29 30 31 32 33 34 35 36 37 38 39 40 41 42 43 44 45 46 47 48 49 50
000 ASUS41 KOKX 172105 RWROKX REGIONAL WEATHER ROUNDUP NATIONAL WEATHER SERVICE NEW YORK NY 400 PM EST WED DEC 17 2014 NOTE: "FAIR" INDICATES FEW OR NO CLOUDS BELOW 12,000 FEET WITH NO SIGNIFICANT WEATHER AND/OR OBSTRUCTIONS TO VISIBILITY. NYZ071-072-176-178-NJZ106-104-172200- NEW YORK CITY METRO AREA CITY SKY/WX TMP DP RH WIND PRES REMARKS CENTRAL PARK CLOUDY 51 35 54 W10G23 29.85R LAGUARDIA APRT CLOUDY 50 36 58 NW18G25 29.83R KENNEDY INTL CLOUDY 52 35 52 W15G24 29.84R NEWARK/LIBERTY CLOUDY 51 36 56 W16 29.84R BRNX BOT. GARD N/A 48 36 61 NW7 29.84S TETERBORO LGT RAIN 48 38 68 W16 29.83R $$ NYZ177-179-078>081-172200- LONG ISLAND NEW YORK CITY SKY/WX TMP DP RH WIND PRES REMARKS FARMINGDALE CLOUDY 51 37 58 NW13G22 29.81R ISLIP CLOUDY 51 38 60 W10 29.79R SHIRLEY CLOUDY 50 39 66 W6 29.80R WESTHAMPTON CLOUDY 51 38 60 W8 29.80R MONTAUK POINT N/A 49 41 74 W8 29.77R $$ NYZ052-065-067-172200- HUDSON VALLEY CITY SKY/WX TMP DP RH WIND PRES REMARKS WHITE PLAINS LGT RAIN 46 39 76 W10G20 29.80R NEWBURGH MOCLDY 45 36 70 NW14G25 29.83R MONTGOMERY CLOUDY 45 34 65 NW10 29.82R POUGHKEEPSIE LGT RAIN 47 35 63 W12 29.81R ALBANY CLOUDY 41 33 73 W14 29.81R $$ NJZ001-105-106-008-010-013-015-019>022-104-172200- NEW JERSEY CITY SKY/WX TMP DP RH WIND PRES REMARKS NEWARK/LIBERTY CLOUDY 51 36 56 W16 29.84R TETERBORO LGT RAIN 48 38 68 W16 29.83R CALDWELL CLOUDY 48 37 65 VRB5 29.84R MORRISTOWN CLOUDY 52 37 58 NW15G30 29.84S SOMERVILLE MOCLDY 49 34 56 VRB6G16 29.84R SUSSEX CLOUDY 46 35 65 VRB7 29.85R ANDOVER N/A 45 35 68 VRB7 29.85R TRENTON CLOUDY 49 31 49 W13G25 29.88R MILLVILLE CLOUDY 50 35 56 W13G23 29.92R ATLANTIC CITY CLOUDY 50 35 56 W14 29.90R WRIGHTSTOWN CLOUDY 49 34 56 W18G25 29.87R TOMS RIVER CLOUDY 50 34 53 NW24G31 29.88R BELMAR CLOUDY 50 32 50 W17G23 29.86R $$ PAZ047>061-062-071-172200- EASTERN PENNSYLVANIA CITY SKY/WX TMP DP RH WIND PRES REMARKS PHILADELPHIA MOCLDY 50 31 48 W17G26 29.93R ALLENTOWN MOCLDY 46 31 55 W16G23 29.89R SCRANTON CLOUDY 42 36 79 SW12G20 29.87R $$ CTZ002-004>006-009-010-012-RIZ004-006-007-MAZ004-011-015-172200- SOUTHERN NEW ENGLAND IN CT CITY SKY/WX TMP DP RH WIND PRES REMARKS BRADLEY INTL CLOUDY 48 38 68 W7 29.77R HARTFORD CLOUDY 48 39 71 VRB7 29.78R DANBURY CLOUDY 47 34 60 W8 29.80R WTRBRY/OXFORD CLOUDY 46 36 66 W7 29.78R BRIDGEPORT CLOUDY 51 39 63 W12 29.79R MERIDEN CLOUDY 49 39 68 N6 29.78R NEW HAVEN CLOUDY 52 41 66 CALM 29.78R CHESTER CLOUDY 48 39 71 NW8 29.78R GROTON MOCLDY 49 40 71 NW14 29.76R WILLIMANTIC CLOUDY 48 38 68 NW10G22 29.77R IN RI CITY SKY/WX TMP DP RH WIND PRES REMARKS PROVIDENCE MOCLDY 49 38 65 NW13 29.73R BLOCK ISLAND CLOUDY 48 41 76 W9 29.75R WESTERLY CLOUDY 50 40 68 NW5 29.76R IN MA CITY SKY/WX TMP DP RH WIND PRES REMARKS BOSTON PTCLDY 48 42 80 NW7 29.69S WORCESTER CLOUDY 42 38 85 W16 29.72R WESTFIELD CLOUDY 47 37 68 W6 29.76R PROVINCETOWN CLOUDY 46 41 81 NW18G25 29.68R NANTUCKET CLOUDY 47 42 83 W14 29.70R $$ ANZ330-335-338-340-345-350-353-355-172200- COASTAL MARINE OBSERVATIONS STATION/POSITION TIME SKY/WX TEMP WIND PRES VSBY WAVE AIR SEA DIR/SP/G HT/PER (UTC) (F) (DEG/KT/KT) (MB) (MI) (FT/S) NY HARB ENTRANCE 2100 49 46 280/ 17/ 21 1010.1 3/ 4 4S FIRE IS 2100 46 N/A 3/10 20S FIRE ISLAND 2000 51 50 1009.5 4/ 4 23SW MTP 2100 N/A 4/ 6 HUDSON CANYON 2100 52 56 300/ 21/ 25 1009.2 EXECUTION ROCKS 2100 49 42 280/ 16/ 23 N/A WESTERN LI SOUND 2100 49 280/ 10/ 12 N/A 0 CENTRAL LI SOUND 2000 47 45 290/ 10/ 12 N/A 1/ 3 EASTERN LI SOUND NOT AVBL ROBBINS REEF 2100 50 300/ 8/ 12 1009.0 $$ >>>>>>>>>>>>>>>>>>>>>>>>>>>> KEY <<<<<<<<<<<<<<<<<<<<<<<<<<< > < > SKY/WX - SKY CONDITION/PRESENT WEATHER < > TMP - TEMPERATURE IN FAHRENHEIT < > DP - DEWPOINT IN FAHRENHEIT < > RH - RELATIVE HUMIDITY IN PERCENT < > WIND - DIRECTION AND SPEED IN MPH < > PRES - MEAN SEA LEVEL PRESSURE IN INCHES OF HG < > WCI - WIND CHILL INDEX < > VSB - VISIBILITY IN MILES < > HX - HEAT INDEX < > TC - TEMPERATURE IN CELSIUS < > VRB - VARIABLE WIND DIRECTION < > < >>>>>>>>>>>>>>>>>>>>>>>>>>>> KEY <<<<<<<<<<<<<<<<<<<<<<<<<<<

USA.gov is the U.S. government's official web portal to all federal, state and local government web resources and services.